{"data":{"norad_id":53866,"intl_designator":"2022-114BA","name":"STARLINK-4762","alt_names":[],"object_type":"PAYLOAD","status":"ACTIVE","operator":null,"country":"US","launch_date":"2022-09-19","launch_site_code":"AFETR","launch_vehicle":null,"mission":null,"orbit_class":"UNKNOWN","rcs_meters":null,"size_class":null,"mass_kg":null,"dimensions":null,"purposes":["comms"],"wikipedia_slug":null,"has_3d_model":false,"image_url":null,"decayed_at":null,"tle_current":{"epoch":"2026-05-25T02:13:32.239200Z","epoch_age_seconds":64256,"freshness":"FRESH","line1":"1 53866U 22114BA  26145.09273425  .00001376  00000+0  10454-3 0  9991","line2":"2 53866  53.2137 281.3403 0001333  91.4456 268.6689 15.08837106204922","mean_motion":15.08837106,"eccentricity":0.0001333,"inclination_deg":53.2137,"raan_deg":281.3403,"arg_perigee_deg":91.4456,"mean_anomaly_deg":268.6689,"bstar":0.00010454,"rev_number":20492,"period_min":95.437737730185,"perigee_km":538.83008014348,"apogee_km":540.67438941348,"semimajor_km":6917.8892347785,"source":"CELESTRAK","updated_at":"2026-05-25T13:38:17.579682Z"}}}